Preview of NWS' New Version of Forecast
This preview is not operational and should not be used for support decisions.

Regional Weather Roundup (RWR)

Issued by National Weather Service (NWS)

                            
000
ASUS43 KBIS 181910
RWRND 

NORTH DAKOTA REGIONAL WEATHER ROUNDUP
NATIONAL WEATHER SERVICE BISMARCK ND
200 PM CDT TUE JUN 18 2019

NOTE: "FAIR" INDICATES FEW OR NO CLOUDS BELOW 12,000 FEET WITH NO
SIGNIFICANT WEATHER AND/OR OBSTRUCTIONS TO VISIBILITY.


NDZ001>003-009>011-017-182000-
NORTHWEST NORTH DAKOTA
  
CITY           SKY/WX    TMP DP  RH WIND       PRES   REMARKS
WILLISTON      FAIR      73  47  39 S12       29.96F                  
MINOT          PTSUNNY   73  44  35 MISG      29.99F                  
MINOT AFB      MOSUNNY   73  46  38 SE10      29.98F                  
$$
 
NDZ018>021-031>035-040>046-182000-
SOUTHWEST NORTH DAKOTA
  
CITY           SKY/WX    TMP DP  RH WIND       PRES   REMARKS
BISMARCK       FAIR      71  51  49 SE7       30.00F                  
DICKINSON      PTSUNNY   67  52  58 E10G24    29.97F                  
GARRISON         N/A     67  48  50 E8        29.99F                  
HETTINGER ARPT FAIR      72  57  59 E7        29.96F                  
$$
 
NDZ004>008-012>016-024-026-027-054-182000-
NORTHEAST NORTH DAKOTA
  
CITY           SKY/WX    TMP DP  RH WIND       PRES   REMARKS
GRAND FORKS    FAIR      72  50  45 VRB7      29.98F                  
GRND FRKS AFB  MOSUNNY   73  46  38 E12       30.00S                  
DEVILS LAKE    FAIR      68  49  50 S10       30.02F                  
$$
 
NDZ022-023-025-028>030-036>039-047>053-182000-
SOUTHEAST NORTH DAKOTA
  
CITY           SKY/WX    TMP DP  RH WIND       PRES   REMARKS
FARGO          PTSUNNY   71  51  49 N8        29.97F                  
JAMESTOWN      PTSUNNY   71  51  49 NE10      29.99F                  
$$